Location: Izdebno
(52.6670°N, 16.2170°E)
Time: 02:21:07
(UTC+02:00)

Tiros 1 - Pass Details

Date: 03 March 2024
Orbit: 625 x 657 km, 48.4° (Epoch: 16 April)

Event Time Altitude Azimuth Distance (km) Brightness Sun altitude
Rises 19:10:07 0° 234° (SW) 2,965 11.3 -14.7°
Reaches altitude 10° 19:12:34 10° 227° (SW) 2,060 10.2 -15.0°
Maximum altitude 19:16:56 37° 160° (SSE) 1,023 7.9 -15.7°
Enters shadow 19:18:45 27° 117° (ESE) 1,267 8.1 -15.9°
